1510635600.45,26369,6.75,72944.8,-11.43,-31.33,-32.79,0,*62
1510635601.69,26370,6.75,72944.8,-11.43,-31.45,-32.91,0,*6D
1510635602.96,26371,6.75,72946.5,-11.43,-31.45,-33.09,0,*6C
1510635604.21,26372,6.75,72950.8,-11.43,-31.33,-32.97,0,*68
1510635605.47,26373,6.75,72946.0,-11.43,-31.45,-32.97,0,*68
1510635606.74,26374,6.75,72942.5,-11.43,-31.17,-32.75,0,*64
1510635607.96,26375,6.75,72940.8,-11.45,-31.33,-32.91,0,*6F
1510635609.2,26376,6.75,72942.3,-11.45,-31.45,-32.97,0,*6B
1510635610.46,26377,6.75,72944.8,-11.45,-31.51,-33.09,0,*69
1510635611.67,26378,6.75,72940.8,-11.45,-31.29,-32.91,0,*69
1510635612.89,26379,6.75,72944.8,-11.45,-31.29,-32.91,0,*68
1510635614.15,26380,6.75,72940.3,-11.47,-31.39,-33.03,0,*67
1510635615.41,26381,6.75,72946.8,-11.47,-31.51,-33.21,0,*68
1510635616.68,26382,6.75,72946.0,-11.47,-31.57,-33.15,0,*6A
1510635617.94,26383,6.75,72950.8,-11.47,-31.33,-32.97,0,*62
1510635619.23,26384,6.75,72948.3,-11.47,-31.39,-32.97,0,*6F
1510635620.5,26385,6.75,72950.5,-11.49,-31.23,-32.85,0,*68
1510635621.73,26386,6.75,72946.8,-11.49,-31.39,-33.03,0,*6F
1510635622.97,26387,6.75,72946.5,-11.49,-31.33,-32.97,0,*68
1510635624.2,26388,6.75,72946.3,-11.49,-31.01,-32.79,0,*66
1510635625.42,26389,6.75,72946.8,-11.49,-31.17,-32.69,0,*61
1510635626.63,26390,6.75,72950.5,-11.49,-31.17,-33.03,0,*64
1510635627.87,26391,6.75,72946.8,-11.49,-31.17,-32.85,0,*6A
1510635629.14,26392,6.75,72944.3,-11.51,-31.11,-32.91,0,*63
1510635630.43,26393,6.75,72944.8,-11.51,-31.23,-33.09,0,*63
1510635631.69,26394,6.75,72940.5,-11.51,-31.39,-33.21,0,*65
1510635632.93,26395,6.75,72946.3,-11.51,-31.29,-33.03,0,*65
1510635634.23,26396,6.75,72950.5,-11.51,-31.23,-32.85,0,*63
1510635635.52,26397,6.75,72952.8,-11.51,-31.11,-32.85,0,*63
1510635636.76,26398,6.75,72948.5,-11.51,-31.29,-32.91,0,*62
1510635638.02,26399,6.75,72946.8,-11.51,-31.05,-32.85,0,*68
1510635639.32,26400,6.75,72946.5,-11.51,-30.77,-32.75,0,*64
1510635640.61,26401,6.75,72950.8,-11.55,-31.23,-33.09,0,*6B
1510635641.88,26402,6.75,72942.5,-11.55,-31.29,-33.09,0,*62
1510635643.17,26403,6.75,72946.5,-11.55,-31.39,-33.09,0,*62
1510635644.4,26404,6.75,72946.3,-11.57,-31.33,-33.09,0,*6D
1510635645.62,26405,6.75,72948.8,-11.57,-31.33,-32.91,0,*6C
1510635646.91,26406,6.75,72948.5,-11.55,-31.57,-33.09,0,*6F
1510635648.15,26407,6.75,72950.0,-11.57,-31.61,-33.15,0,*64
1510635649.37,26408,6.75,72950.3,-11.57,-31.17,-32.91,0,*67
1510635650.63,26409,6.75,72948.5,-11.57,-31.23,-32.97,0,*67
1510635651.9,26410,6.75,72950.0,-11.55,-30.33,-32.85,0,*6E
1510635653.19,26411,6.75,72950.0,-11.55,-30.01,-32.85,0,*6E
1510635654.43,26412,6.75,72952.5,-11.57,-30.05,-32.91,0,*6E
1510635655.66,26413,6.75,72948.8,-11.57,-30.55,-32.91,0,*6A
1510635656.92,26414,6.75,72948.8,-11.59,-30.23,-32.97,0,*64
1510635658.16,26415,6.75,72958.0,-11.57,-29.17,-32.91,0,*62
1510635659.38,26416,6.75,72956.3,-11.61,-29.67,-32.39,0,*61
1510635660.65,26417,6.75,72954.0,-11.59,-29.01,-32.39,0,*6B
1510635661.91,26418,6.75,72950.0,-11.59,-31.01,-32.79,0,*69
1510635663.18,26419,6.75,72946.5,-11.59,-31.29,-32.97,0,*62
1510635664.42,26420,6.75,72944.0,-11.59,-31.45,-33.15,0,*69
1510635665.66,26421,6.75,72950.3,-11.61,-31.51,-33.15,0,*66
1510635666.93,26422,6.75,72952.3,-11.61,-31.23,-32.79,0,*6B
1510635668.22,26423,6.75,72948.3,-11.59,-31.11,-32.85,0,*63
1510635669.46,26424,6.75,72950.3,-11.61,-31.39,-33.03,0,*6A
1510635670.73,26425,6.75,72948.3,-11.59,-31.33,-33.09,0,*60
1510635672.0,26426,6.75,72950.0,-11.59,-31.45,-33.27,0,*6E
1510635673.24,26427,6.75,72948.3,-11.61,-31.01,-32.75,0,*62
1510635674.48,26428,6.75,72950.3,-11.59,-31.29,-32.91,0,*66
1510635675.72,26429,6.75,72952.5,-11.59,-31.29,-32.91,0,*67
1510635676.96,26430,6.75,72950.8,-11.61,-31.51,-33.21,0,*61
1510635678.2,26431,6.75,72950.3,-11.61,-31.51,-33.21,0,*60
1510635679.44,26432,6.75,72954.3,-11.61,-31.51,-33.21,0,*63
1510635680.67,26433,6.75,72954.3,-11.61,-31.39,-33.15,0,*6B
1510635681.93,26434,6.75,72950.8,-11.61,-31.39,-32.97,0,*67
1510635683.17,26435,6.75,72952.5,-11.61,-31.39,-33.03,0,*6A
1510635684.42,26436,6.75,72952.3,-11.61,-31.39,-32.97,0,*65
1510635685.67,26437,6.75,72950.3,-11.65,-31.45,-33.09,0,*6D
1510635686.91,26438,6.75,72948.5,-11.65,-31.57,-33.21,0,*6B
1510635688.19,26439,6.75,72950.0,-11.65,-31.57,-33.27,0,*6C
1510635689.41,26440,6.75,72944.8,-11.65,-31.45,-33.37,0,*60
1510635690.68,26441,6.75,72944.8,-11.67,-31.45,-33.09,0,*6E
1510635691.98,26442,6.75,72948.0,-11.67,-31.73,-33.43,0,*66
1510635693.25,26443,6.75,72950.3,-11.67,-31.45,-33.09,0,*6C
1510635694.52,26444,6.75,72950.0,-11.67,-31.23,-32.91,0,*6B
1510635695.81,26445,6.75,72950.8,-11.67,-31.39,-33.09,0,*61
1510635697.03,26446,6.75,72948.0,-11.69,-31.45,-33.21,0,*6D
1510635698.28,26447,6.75,72954.0,-11.67,-31.45,-33.21,0,*62
1510635699.54,26448,6.75,72952.3,-11.67,-31.39,-33.03,0,*66
1510635700.81,26449,6.75,72954.0,-11.67,-31.39,-32.91,0,*6D
1510635702.11,26450,6.75,72942.3,-11.67,-31.23,-32.79,0,*68
1510635703.38,26451,6.75,72944.5,-11.67,-31.11,-32.91,0,*6E
1510635704.64,26452,6.75,72950.0,-11.67,-31.39,-32.91,0,*67
1510635705.92,26453,6.75,72946.5,-11.67,-30.77,-32.51,0,*61
1510635707.19,26454,6.75,72944.3,-11.67,-31.23,-32.91,0,*6A
1510635708.48,26455,6.75,72948.5,-11.67,-31.39,-33.09,0,*60
1510635709.77,26456,6.75,72946.0,-11.67,-31.39,-33.09,0,*63
1510635711.03,26457,6.75,72944.3,-11.67,-31.39,-33.21,0,*68
1510635712.25,26458,6.75,72950.3,-11.69,-31.45,-33.15,0,*65
1510635713.51,26459,6.75,72948.8,-11.69,-31.51,-32.97,0,*6A
1510635714.79,26460,6.75,72948.8,-11.67,-31.23,-32.91,0,*6D
1510635716.05,26461,6.75,72950.0,-11.67,-31.39,-32.91,0,*67
1510635717.3,26462,6.75,72948.0,-11.67,-31.45,-33.21,0,*65
1510635718.57,26463,6.75,72952.5,-11.67,-31.11,-32.69,0,*68
1510635719.84,26464,6.75,72952.0,-11.67,-31.39,-33.03,0,*68
1510635721.05,26465,6.75,72950.5,-11.69,-31.17,-32.91,0,*61
1510635722.29,26466,6.75,72950.8,-11.69,-31.33,-32.97,0,*62
1510635723.53,26467,6.75,72954.5,-11.69,-31.33,-32.97,0,*63
1510635724.75,26468,6.75,72954.0,-11.69,-31.17,-32.91,0,*6C
1510635725.99,26469,6.75,72954.0,-11.69,-31.17,-32.85,0,*68
1510635727.24,26470,6.75,72954.5,-11.69,-31.17,-32.75,0,*6F
1510635728.46,26471,6.75,72948.5,-11.69,-31.29,-32.91,0,*69
1510635729.7,26472,6.75,72948.3,-11.69,-31.33,-33.09,0,*61
1510635730.92,26473,6.75,72950.8,-11.69,-31.17,-32.91,0,*66
1510635732.16,26474,6.75,72952.0,-11.69,-31.45,-32.97,0,*60
1510635733.38,26475,6.75,72954.0,-11.69,-31.01,-32.69,0,*60
1510635734.62,26476,6.75,72950.8,-11.69,-31.29,-32.97,0,*68
1510635735.84,26477,6.75,72954.5,-11.69,-31.45,-32.91,0,*65
1510635737.06,26478,6.75,72954.3,-11.69,-31.29,-32.91,0,*60
1510635738.3,26479,6.75,72952.8,-11.69,-31.33,-32.97,0,*6C
1510635739.54,26480,6.75,72956.0,-11.69,-31.45,-32.97,0,*6B
1510635740.76,26481,6.75,72952.5,-11.69,-31.33,-32.91,0,*6D
1510635742.04,26482,6.75,72952.8,-11.71,-31.45,-33.09,0,*66
1510635743.32,26483,6.75,72954.8,-11.71,-31.45,-33.09,0,*67
1510635744.59,26484,6.75,72952.8,-11.71,-31.17,-32.75,0,*6D
1510635745.86,26485,6.75,72954.0,-11.71,-31.45,-32.97,0,*67
1510635747.11,26486,6.75,72954.0,-11.69,-31.45,-32.97,0,*6D
1510635748.36,26487,6.75,72954.3,-11.69,-31.45,-33.09,0,*6A
1510635749.63,26488,6.75,72956.5,-11.71,-31.45,-32.97,0,*6A
1510635750.9,26489,6.75,72954.8,-11.71,-31.51,-32.91,0,*68
1510635752.15,26490,6.75,72954.0,-11.71,-31.33,-32.91,0,*64
1510635753.42,26491,6.75,72952.5,-11.71,-31.45,-33.09,0,*64
1510635754.72,26492,6.75,72952.8,-11.71,-31.51,-33.09,0,*62
1510635756.02,26493,6.75,72954.5,-11.71,-31.51,-33.09,0,*63
1510635757.29,26494,6.75,72952.8,-11.71,-31.29,-32.85,0,*6E
1510635758.56,26495,6.75,72954.5,-11.71,-31.45,-32.97,0,*66
1510635759.82,26496,6.75,72952.5,-11.71,-30.83,-32.39,0,*6A
1510635761.09,26497,6.75,72954.0,-11.71,-30.95,-32.51,0,*62
1510635762.34,26498,6.75,72954.0,-11.71,-31.17,-32.69,0,*6D
1510635763.62,26499,6.75,72956.3,-11.71,-31.45,-32.97,0,*6A
1510635764.87,26500,6.75,72954.3,-11.71,-31.33,-32.91,0,*6C
1510635766.12,26501,6.75,72956.8,-11.71,-31.17,-32.69,0,*6C
1510635767.34,26502,6.75,72952.5,-11.69,-31.45,-32.91,0,*66
1510635768.61,26503,6.75,72954.5,-11.71,-31.29,-32.85,0,*61
1510635769.89,26504,6.75,72950.8,-11.71,-31.45,-32.97,0,*6F
1510635771.16,26505,6.75,72954.8,-11.71,-31.17,-32.85,0,*6A
1510635772.45,26506,6.75,72952.3,-11.71,-31.51,-32.97,0,*68
1510635773.73,26507,6.75,72954.3,-11.71,-31.61,-33.15,0,*61
1510635775.0,26508,6.75,72952.0,-11.71,-31.33,-32.97,0,*62
1510635776.27,26509,6.75,72952.8,-11.71,-31.45,-32.97,0,*62
1510635777.57,26510,6.75,72952.3,-11.71,-31.51,-32.85,0,*6C
1510635778.83,26511,6.75,72954.3,-11.73,-31.51,-33.03,0,*60
1510635780.07,26512,6.75,72954.0,-11.73,-31.67,-33.03,0,*66
1510635781.35,26513,6.75,72952.8,-11.73,-31.57,-32.97,0,*68
1510635782.65,26514,6.75,72956.8,-11.73,-31.57,-32.85,0,*6C
1510635783.92,26515,6.75,72952.3,-11.71,-31.33,-32.85,0,*6D
1510635785.19,26516,6.75,72958.3,-11.71,-31.45,-32.97,0,*6C
1510635786.48,26517,6.75,72958.3,-11.73,-31.51,-32.97,0,*6A
1510635787.72,26518,6.75,72954.8,-11.75,-31.57,-33.03,0,*69
1510635788.99,26519,6.75,72952.0,-11.73,-31.39,-32.91,0,*6C
1510635790.23,26520,6.75,72954.8,-11.75,-31.51,-32.91,0,*6E
1510635791.49,26521,6.75,72954.8,-11.73,-31.33,-32.79,0,*6B
1510635792.76,26522,6.75,72954.3,-11.73,-31.57,-33.03,0,*66
1510635794.05,26523,6.75,72950.5,-11.73,-31.23,-32.63,0,*63
1510635795.32,26524,6.75,72950.8,-11.75,-31.51,-32.79,0,*6C
1510635796.58,26525,6.75,72960.5,-11.73,-31.39,-32.91,0,*63
1510635797.85,26526,6.75,72958.8,-11.75,-30.89,-32.45,0,*65
1510635799.09,26527,6.75,72954.8,-11.73,-31.17,-32.39,0,*6F
1510635800.32,26528,6.75,72944.3,-11.73,-31.17,-32.57,0,*68
1510635801.54,26529,6.75,72950.8,-11.75,-31.05,-32.39,0,*64
1510635802.82,26530,6.75,72954.0,-11.73,-31.39,-32.79,0,*61
1510635804.11,26531,6.75,72952.5,-11.73,-30.89,-32.29,0,*6F
1510635805.36,26532,6.75,72952.5,-11.71,-31.29,-32.51,0,*6A
1510635806.6,26533,6.75,72954.8,-11.71,-31.17,-32.57,0,*60
1510635807.88,26534,6.75,72956.3,-11.71,-31.33,-32.75,0,*61
1510635809.16,26535,6.75,72954.0,-11.71,-31.45,-32.75,0,*61
1510635810.45,26536,6.75,72952.5,-11.71,-31.51,-32.97,0,*6B
1510635811.75,26537,6.75,72952.3,-11.71,-31.51,-32.85,0,*69
1510635813.05,26538,6.75,72954.8,-11.71,-31.51,-32.85,0,*66
1510635814.34,26539,6.75,72954.5,-11.73,-31.57,-32.79,0,*60
1510635815.64,26540,6.75,72954.8,-11.73,-31.39,-32.79,0,*66
1510635816.87,26541,6.75,72954.5,-11.75,-31.67,-32.97,0,*6A
1510635818.11,26542,6.75,72952.5,-11.73,-31.67,-32.91,0,*69
1510635819.37,26543,6.75,72952.0,-11.73,-31.85,-33.03,0,*6E
1510635820.62,26544,6.75,72954.3,-11.75,-31.73,-33.03,0,*66
1510635821.88,26545,6.75,72958.0,-11.75,-31.73,-32.97,0,*6B
1510635823.15,26546,6.75,72954.8,-11.75,-31.51,-32.79,0,*68
1510635824.41,26547,6.75,72952.3,-11.75,-31.39,-32.63,0,*6C
1510635825.68,26548,6.75,72956.0,-11.75,-31.57,-32.79,0,*60
1510635826.93,26549,6.75,72956.0,-11.75,-31.73,-32.91,0,*61
1510635828.17,26550,6.75,72952.3,-11.75,-31.57,-32.91,0,*6F
1510635829.44,26551,6.75,72952.8,-11.75,-31.57,-32.97,0,*68
1510635830.68,26552,6.75,72958.5,-11.75,-31.67,-32.79,0,*68
1510635831.92,26553,6.75,72956.0,-11.75,-31.85,-33.03,0,*69
1510635833.19,26554,6.75,72954.8,-11.75,-31.39,-32.45,0,*6A
1510635834.42,26555,6.75,72958.8,-11.75,-31.39,-32.57,0,*68
1510635835.63,26556,6.75,72954.8,-11.75,-31.67,-32.91,0,*6A
1510635836.9,26557,6.75,72954.0,-11.75,-31.39,-32.63,0,*6D
1510635838.11,26558,6.75,72956.0,-11.75,-31.67,-32.91,0,*64
1510635839.36,26559,6.75,72958.0,-11.75,-31.85,-32.91,0,*69
1510635840.63,26560,6.75,72956.5,-11.75,-31.57,-32.75,0,*66
1510635841.84,26561,6.75,72958.5,-11.75,-31.67,-32.91,0,*6E
1510635843.06,26562,6.75,72956.5,-11.79,-31.79,-33.03,0,*64
1510635844.37,26563,6.75,72956.0,-11.81,-31.73,-32.85,0,*67
1510635845.64,26564,6.75,72956.5,-11.79,-31.73,-32.79,0,*64
1510635846.88,26565,6.75,72958.0,-11.79,-31.91,-33.03,0,*65
1510635848.13,26566,6.75,72958.0,-11.79,-31.91,-33.03,0,*66
1510635849.4,26567,6.75,72962.8,-11.79,-31.61,-32.79,0,*64
1510635850.67,26568,6.75,72958.0,-11.79,-31.61,-32.63,0,*60
1510635851.97,26569,6.75,72952.8,-11.81,-31.73,-32.79,0,*6E
1510635853.23,26570,6.75,72958.3,-11.79,-31.61,-32.69,0,*63
1510635854.47,26571,6.75,72960.0,-11.79,-31.45,-32.45,0,*6A
1510635855.74,26572,6.75,72962.0,-11.79,-31.57,-32.63,0,*6E
1510635857.04,26573,6.75,72958.5,-11.81,-31.73,-32.79,0,*65
1510635858.32,26574,6.75,72962.0,-11.79,-31.61,-32.63,0,*6D
1510635859.57,26575,6.75,72962.0,-11.79,-31.57,-32.69,0,*63
1510635860.83,26576,6.75,72960.3,-11.79,-31.91,-32.97,0,*6B
1510635862.08,26577,6.75,72962.3,-11.79,-31.79,-32.79,0,*6C
1510635863.38,26578,6.75,72952.5,-11.81,-31.61,-32.63,0,*66
1510635864.65,26579,6.75,72958.0,-11.79,-31.61,-32.63,0,*60
1510635865.92,26580,6.75,72960.8,-11.79,-31.73,-32.79,0,*6E
1510635867.18,26581,6.75,72962.3,-11.79,-31.73,-32.51,0,*65
1510635868.45,26582,6.75,72958.8,-11.81,-31.57,-32.69,0,*6C
1510635869.73,26583,6.75,72960.3,-11.81,-31.61,-32.69,0,*68
1510635871.03,26584,6.75,72960.5,-11.81,-31.57,-32.63,0,*60
1510635872.3,26585,6.75,72962.5,-11.81,-31.73,-32.69,0,*6D
1510635873.54,26586,6.75,72960.5,-11.79,-31.79,-32.97,0,*62
1510635874.84,26587,6.75,72960.0,-11.81,-31.57,-32.45,0,*67
1510635876.14,26588,6.75,72960.3,-11.81,-31.57,-32.63,0,*6C
1510635877.41,26589,6.75,72966.3,-11.81,-31.79,-32.79,0,*6A
1510635878.64,26590,6.75,72964.0,-11.79,-31.45,-32.35,0,*62
1510635879.93,26591,6.75,72960.3,-11.81,-31.57,-32.45,0,*60
1510635881.18,26592,6.75,72962.0,-11.79,-31.79,-32.79,0,*67
1510635882.42,26593,6.75,72962.3,-11.79,-31.39,-32.35,0,*6A
1510635883.7,26594,6.75,72964.3,-11.81,-31.57,-32.51,0,*60
1510635884.98,26595,6.75,72962.0,-11.81,-31.57,-32.69,0,*6A
1510635886.25,26596,6.75,72964.0,-11.81,-31.73,-32.69,0,*6F
1510635887.53,26597,6.75,72966.3,-11.81,-31.61,-32.51,0,*66
1510635888.78,26598,6.75,72964.3,-11.81,-31.79,-32.69,0,*6B
1510635890.06,26599,6.75,72962.8,-11.81,-31.73,-32.69,0,*60
1510635891.34,26600,6.75,72966.8,-11.81,-31.61,-32.69,0,*60
1510635892.62,26601,6.75,72964.3,-11.81,-31.73,-32.51,0,*69
1510635893.89,26602,6.75,72962.5,-11.81,-31.57,-32.35,0,*6E
1510635895.16,26603,6.75,72960.5,-11.81,-31.57,-32.51,0,*6D
1510635896.44,26604,6.75,72960.0,-11.79,-31.91,-32.79,0,*6D
1510635897.71,26605,6.75,72966.8,-11.81,-31.61,-32.69,0,*65
1510635898.96,26606,6.75,72962.8,-11.79,-31.73,-32.69,0,*62
1510635900.24,26607,6.75,72962.0,-11.81,-31.79,-32.79,0,*6F
1510635901.54,26608,6.75,72960.8,-11.81,-31.73,-32.63,0,*61
1510635902.81,26609,6.75,72960.3,-11.81,-31.79,-32.63,0,*6A
1510635904.08,26610,6.75,72960.3,-11.81,-30.95,-31.79,0,*69
1510635905.34,26611,6.75,72962.3,-11.81,-31.39,-32.13,0,*60
1510635906.64,26612,6.75,72960.5,-11.81,-31.39,-32.19,0,*69
1510635907.9,26613,6.75,72960.5,-11.81,-31.39,-32.13,0,*62
1510635909.2,26614,6.75,72966.0,-11.81,-31.61,-32.63,0,*6F
1510635910.47,26615,6.75,72968.0,-11.79,-31.73,-32.63,0,*6A
1510635911.74,26616,6.75,72966.0,-11.81,-31.79,-32.63,0,*64
1510635913.04,26617,6.75,72964.3,-11.81,-31.57,-32.29,0,*67
1510635914.31,26618,6.75,72966.0,-11.79,-31.73,-32.63,0,*67
1510635915.56,26619,6.75,72966.8,-11.81,-31.79,-32.69,0,*61
1510635916.84,26620,6.75,72966.3,-11.83,-31.95,-32.75,0,*66
1510635918.13,26621,6.75,72966.0,-11.81,-31.73,-32.63,0,*6A
1510635919.41,26622,6.75,72966.8,-11.81,-31.91,-32.69,0,*6F
1510635920.69,26623,6.75,72966.3,-11.81,-31.73,-32.51,0,*69
1510635921.9,26624,6.75,72966.8,-11.83,-31.79,-32.57,0,*60
1510635923.2,26625,6.75,72968.8,-11.81,-31.73,-32.63,0,*6E
1510635924.5,26626,6.75,72972.0,-11.85,-31.95,-32.75,0,*66
1510635925.73,26627,6.75,72966.3,-11.85,-31.67,-32.57,0,*6A
1510635926.99,26628,6.75,72966.3,-11.81,-31.79,-32.51,0,*68
1510635928.26,26629,6.75,72964.0,-11.81,-31.73,-32.51,0,*63
1510635929.52,26630,6.75,72966.8,-11.83,-31.95,-32.69,0,*6A
1510635930.75,26631,6.75,72966.8,-11.85,-31.67,-32.57,0,*6D
1510635931.97,26632,6.75,72966.0,-11.83,-31.79,-32.57,0,*67
1510635933.22,26633,6.75,72968.8,-11.83,-31.85,-32.69,0,*68
1510635934.47,26634,6.75,72966.8,-11.83,-31.95,-32.69,0,*6E
1510635935.72,26635,6.75,72964.8,-11.83,-31.85,-32.51,0,*65
1510635937.0,26636,6.75,72964.8,-11.85,-31.61,-32.51,0,*6A
1510635938.21,26637,6.75,72968.8,-11.83,-31.79,-32.57,0,*62
1510635939.46,26638,6.75,72966.5,-11.83,-31.85,-32.69,0,*63
1510635940.7,26639,6.75,72968.0,-11.85,-31.79,-32.57,0,*6A
1510635942.0,26640,6.75,72970.5,-11.85,-31.95,-32.75,0,*66
1510635943.28,26641,6.75,72970.0,-11.85,-31.95,-32.69,0,*6A
1510635944.53,26642,6.75,72968.3,-11.85,-31.67,-32.51,0,*6F
1510635945.76,26643,6.75,72970.8,-11.85,-31.67,-32.57,0,*68
1510635946.98,26644,6.75,72968.5,-11.83,-31.79,-32.57,0,*66
1510635948.2,26645,6.75,72968.5,-11.83,-31.67,-32.51,0,*6E
1510635949.47,26646,6.75,72966.8,-11.85,-31.85,-32.39,0,*69
1510635950.73,26647,6.75,72970.3,-11.85,-31.51,-32.35,0,*6D
1510635951.99,26648,6.75,72964.5,-11.85,-31.79,-32.51,0,*6A
1510635953.22,26649,6.75,72964.8,-11.85,-31.79,-32.57,0,*6D
1510635954.49,26650,6.75,72966.3,-11.85,-31.61,-32.23,0,*6F
1510635955.77,26651,6.75,72966.3,-11.85,-31.61,-32.39,0,*65
1510635957.01,26652,6.75,72968.0,-11.85,-31.67,-32.35,0,*6C
1510635958.26,26653,6.75,72970.5,-11.85,-31.79,-32.51,0,*60
1510635959.49,26654,6.75,72970.3,-11.85,-31.67,-32.57,0,*6E
1510635960.74,26655,6.75,72970.3,-11.85,-31.79,-32.39,0,*68
1510635961.98,26656,6.75,72964.5,-11.85,-31.67,-32.35,0,*68
1510635963.2,26657,6.75,72964.8,-11.83,-31.79,-32.51,0,*62
1510635964.47,26658,6.75,72962.3,-11.85,-31.29,-32.07,0,*6D
1510635965.74,26659,6.75,72966.5,-11.85,-31.61,-32.35,0,*61
1510635966.98,26660,6.75,72966.5,-11.85,-31.79,-32.57,0,*66
1510635968.23,26661,6.75,72968.0,-11.85,-31.67,-32.39,0,*60
1510635969.47,26662,6.75,72968.8,-11.85,-31.79,-32.51,0,*62
1510635970.77,26663,6.75,72970.0,-11.89,-31.73,-32.45,0,*60
1510635972.05,26664,6.75,72968.0,-11.87,-31.23,-31.85,0,*63
1510635973.26,26665,6.75,72972.5,-11.87,-31.67,-32.23,0,*6D
1510635974.51,26666,6.75,72968.3,-11.87,-31.73,-32.57,0,*68
1510635975.77,26667,6.75,72968.3,-11.85,-31.85,-32.57,0,*62
1510635977.05,26668,6.75,72970.5,-11.83,-31.61,-32.19,0,*6B
1510635978.32,26669,6.75,72968.0,-11.85,-31.85,-32.69,0,*61
1510635979.58,26670,6.75,72970.0,-11.85,-32.01,-32.69,0,*66
1510635980.82,26671,6.75,72970.8,-11.87,-31.85,-32.57,0,*67
1510635982.1,26672,6.75,72968.8,-11.87,-31.91,-32.75,0,*61
1510635983.39,26673,6.75,72968.5,-11.89,-31.91,-32.63,0,*69
1510635984.68,26674,6.75,72970.0,-11.89,-31.73,-32.29,0,*6C
1510635985.96,26675,6.75,72970.0,-11.89,-31.73,-32.39,0,*6C
1510635987.23,26676,6.75,72966.0,-11.87,-31.85,-32.45,0,*63
1510635988.48,26677,6.75,72966.8,-11.87,-31.73,-32.39,0,*60
1510635989.78,26678,6.75,72970.0,-11.89,-31.73,-32.45,0,*6A
1510635991.07,26679,6.75,72966.8,-11.89,-31.85,-32.45,0,*62
1510635992.34,26680,6.75,72968.3,-11.89,-31.57,-32.23,0,*6B
1510635993.64,26681,6.75,72964.8,-11.89,-31.23,-31.85,0,*66
1510635994.91,26682,6.75,72970.0,-11.87,-31.57,-32.29,0,*6D
1510635996.13,26683,6.75,72970.3,-11.87,-31.67,-32.23,0,*65
1510635997.37,26684,6.75,72968.0,-11.87,-31.51,-32.13,0,*64
1510635998.63,26685,6.75,72968.5,-11.89,-31.67,-32.29,0,*67
1510635999.91,26686,6.75,72968.8,-11.87,-31.73,-32.45,0,*65
1510636001.16,26687,6.75,72968.8,-11.87,-31.57,-32.13,0,*61
1510636002.4,26688,6.75,72970.5,-11.87,-31.51,-32.23,0,*6B
1510636003.67,26689,6.75,72968.8,-11.89,-31.73,-32.39,0,*6F
1510636004.89,26690,6.75,72970.3,-11.87,-31.01,-31.67,0,*64
1510636006.13,26691,6.75,72968.3,-11.87,-31.51,-32.13,0,*60
1510636007.37,26692,6.75,72970.3,-11.89,-31.67,-32.39,0,*60
1510636008.65,26693,6.75,72970.8,-11.87,-31.73,-32.29,0,*6B
1510636009.89,26694,6.75,72968.0,-11.87,-31.17,-31.91,0,*6E
1510636011.14,26695,6.75,72974.3,-11.87,-31.51,-32.13,0,*64
1510636012.4,26696,6.75,72968.3,-11.87,-30.95,-31.57,0,*6D
1510636013.65,26697,6.75,72968.8,-11.83,-31.61,-32.23,0,*62
1510636014.92,26698,6.75,72970.5,-11.85,-31.61,-32.23,0,*6B
1510636016.19,26699,6.75,72970.3,-11.85,-31.61,-32.23,0,*6A
1510636017.44,26700,6.75,72974.3,-11.87,-31.73,-32.39,0,*61
1510636018.72,26701,6.75,72970.3,-11.87,-31.73,-32.45,0,*6B
1510636019.93,26702,6.75,72972.5,-11.87,-31.01,-31.67,0,*6E
1510636021.18,26703,6.75,72970.0,-11.87,-31.51,-32.13,0,*6A
1510636022.42,26704,6.75,72968.8,-11.87,-31.51,-32.01,0,*6E
1510636023.69,26705,6.75,72968.0,-11.85,-31.61,-32.35,0,*69
1510636024.96,26706,6.75,72974.0,-11.85,-31.61,-32.23,0,*6D
1510636026.24,26707,6.75,72970.8,-11.83,-31.61,-32.19,0,*63
1510636027.51,26708,6.75,72968.0,-11.87,-31.57,-32.29,0,*6E
1510636028.78,26709,6.75,72970.3,-11.87,-31.51,-32.29,0,*69
1510636030.02,26710,6.75,72970.0,-11.87,-31.73,-32.57,0,*68
1510636031.27,26711,6.75,72966.3,-11.87,-31.73,-32.39,0,*61
1510636032.52,26712,6.75,72970.5,-11.87,-31.73,-32.57,0,*6A
1510636033.78,26713,6.75,72972.8,-11.89,-31.67,-32.45,0,*63
1510636035.03,26714,6.75,72970.8,-11.87,-31.73,-32.57,0,*6C
1510636036.28,26715,6.75,72968.3,-11.87,-31.73,-32.39,0,*65
1510636037.56,26716,6.75,72972.0,-11.87,-31.73,-32.45,0,*6D
1510636038.8,26717,6.75,72970.8,-11.87,-31.85,-32.57,0,*66
1510636040.08,26718,6.75,72972.5,-11.87,-31.73,-32.45,0,*63
1510636041.3,26719,6.75,72970.3,-11.87,-31.67,-32.39,0,*6C
1510636042.56,26720,6.75,72968.0,-11.89,-31.67,-32.45,0,*63
1510636043.86,26721,6.75,72966.8,-11.89,-31.73,-32.45,0,*67
1510636045.1,26722,6.75,72970.0,-11.87,-31.67,-32.29,0,*65
1510636046.34,26723,6.75,72968.8,-11.89,-31.67,-32.23,0,*60
1510636047.6,26724,6.75,72966.0,-11.89,-31.67,-32.29,0,*6D
1510636048.87,26725,6.75,72970.0,-11.89,-31.51,-32.39,0,*68
1510636050.13,26726,6.75,72968.8,-11.89,-31.67,-32.45,0,*65
1510636051.42,26727,6.75,72970.0,-11.89,-31.57,-32.29,0,*6D
1510636052.67,26728,6.75,72970.5,-11.89,-31.67,-32.39,0,*60
1510636053.94,26729,6.75,72968.3,-11.89,-31.73,-32.39,0,*64
1510636055.24,26730,6.75,72970.0,-11.89,-31.73,-32.45,0,*67
1510636056.53,26731,6.75,72970.0,-11.89,-31.73,-32.45,0,*66
1510636057.77,26732,6.69,72962.3,-11.87,-31.67,-32.29,0,*64
1510636059.07,26733,6.75,72968.0,-11.89,-31.73,-32.45,0,*64
1510636060.36,26734,6.75,72964.3,-11.89,-31.73,-32.29,0,*69
1510636061.66,26735,6.75,72966.0,-11.89,-31.73,-32.45,0,*62
1510636062.95,26736,6.75,72966.8,-11.89,-31.73,-32.45,0,*61
1510636064.21,26737,6.75,72964.8,-11.89,-31.51,-32.13,0,*63
1510636065.48,26738,6.75,72964.8,-11.89,-31.51,-32.23,0,*6F
1510636066.71,26739,6.75,72964.0,-11.91,-31.79,-32.51,0,*68
1510636067.95,26740,6.75,72968.5,-11.91,-31.79,-32.63,0,*67
1510636069.18,26741,6.75,72966.5,-11.91,-31.79,-32.51,0,*67
1510636070.45,26742,6.75,72966.5,-11.91,-31.73,-32.45,0,*6B
1510636071.72,26743,6.75,72966.0,-11.91,-31.73,-32.45,0,*6A
1510636072.96,26744,6.75,72964.0,-11.91,-31.79,-32.63,0,*63
1510636074.21,26745,6.75,72966.0,-11.91,-31.73,-32.35,0,*6B
1510636075.46,26746,6.75,72966.0,-11.91,-31.73,-32.51,0,*6A
1510636076.68,26747,6.75,72966.0,-11.91,-31.79,-32.35,0,*63
1510636077.93,26748,6.75,72964.3,-11.95,-31.73,-32.35,0,*62
1510636079.18,26749,6.75,72962.5,-11.91,-31.73,-32.51,0,*65
1510636080.43,26750,6.75,72964.5,-11.95,-31.73,-32.35,0,*6B
1510636081.67,26751,6.75,72966.0,-11.95,-31.79,-32.45,0,*67
1510636082.92,26752,6.75,72964.0,-11.95,-31.79,-32.45,0,*64
1510636084.17,26753,6.75,72960.3,-11.91,-31.61,-32.35,0,*6F
1510636085.42,26754,6.75,72964.0,-11.95,-31.45,-32.07,0,*6B
1510636086.66,26755,6.75,72964.0,-11.95,-31.61,-32.35,0,*6D
1510636087.93,26756,6.75,72960.5,-11.91,-31.73,-32.29,0,*64
1510636089.21,26757,6.75,72966.0,-11.95,-31.73,-32.45,0,*6B
1510636090.45,26758,6.75,72964.5,-11.97,-31.79,-32.39,0,*67
1510636091.72,26759,6.75,72964.5,-11.97,-31.61,-32.35,0,*63
1510636092.96,26760,6.75,72964.8,-11.97,-31.79,-32.35,0,*60
1510636094.21,26761,6.75,72962.8,-11.95,-31.61,-32.35,0,*6A
1510636095.48,26762,6.75,72966.0,-11.95,-31.39,-32.07,0,*65
1510636096.73,26763,6.75,72968.0,-11.91,-31.45,-32.29,0,*67
1510636098.0,26764,6.75,72968.3,-11.91,-31.61,-32.19,0,*65
1510636099.28,26765,6.75,72970.3,-11.95,-31.57,-32.19,0,*65
1510636100.54,26766,6.75,72966.0,-11.91,-31.73,-32.29,0,*67
1510636101.8,26767,6.75,72970.8,-11.95,-31.45,-32.07,0,*6B
1510636103.04,26768,6.75,72968.8,-11.95,-31.73,-32.35,0,*60